KK7N Weather Reports


Display with metric or nautical units.
time (UTC)temp
F
wind
direction
speed
MPH
gust
MPH
rain 1hr
in
rain 24hr
in
rain mn
in
humidity
%
barometer
mb
20260506211541 64 0 0.0 3.0 0.00 0.00 0.00 76 1020.9
20260506210052 63 0 0.0 1.0 0.00 0.00 0.00 75 1020.9
20260506204549 63 0 0.0 2.0 0.00 0.00 0.00 77 1020.9
20260506203047 62 0 0.0 1.0 0.00 0.00 0.00 78 1020.8
20260506201545 62 0 0.0 2.0 0.00 0.00 0.00 79 1021.0
20260506200049 62 0 0.0 3.0 0.00 0.00 0.00 78 1021.0
20260506194600 62 0 1.0 4.0 0.00 0.00 0.00 77 1021.2
20260506193043 62 298 0.0 3.0 0.00 0.00 0.00 77 1021.2
20260506191543 62 0 1.0 3.0 0.00 0.00 0.00 75 1021.1
20260506190044 62 298 1.0 4.0 0.00 0.00 0.00 77 1021.1
20260506184540 61 0 2.0 7.0 0.00 0.00 0.00 77 1021.0
20260506183043 61 299 2.0 7.0 0.00 0.00 0.00 77 1021.1
20260506181548 61 0 0.0 3.0 0.00 0.00 0.00 78 1021.1
20260506180049 61 301 0.0 5.0 0.00 0.00 0.00 78 1021.1
20260506174542 61 0 0.0 3.0 0.00 0.00 0.00 77 1021.0
20260506173050 60 333 0.0 3.0 0.00 0.00 0.00 78 1020.9
20260506171554 60 334 0.0 3.0 0.00 0.00 0.00 80 1020.9
20260506170049 59 334 1.0 6.0 0.00 0.00 0.00 81 1020.9
20260506164544 59 0 0.0 4.0 0.00 0.00 0.00 82 1020.9
20260506163049 58 0 0.0 3.0 0.00 0.00 0.00 83 1020.7
20260506161553 57 0 0.0 3.0 0.00 0.00 0.00 84 1020.6
20260506160049 57 0 0.0 2.0 0.00 0.00 0.00 84 1020.3
20260506154607 56 0 0.0 7.0 0.00 0.00 0.00 84 1020.3
20260506153043 56 302 1.0 5.0 0.00 0.00 0.00 85 1020.9
20260506151543 56 279 4.0 9.0 0.00 0.00 0.00 85 1021.0
20260506150047 56 289 2.0 8.0 0.00 0.00 0.00 85 1020.7
20260506144547 57 298 4.0 9.0 0.00 0.00 0.00 86 1020.7
20260506143045 56 0 1.0 4.0 0.00 0.00 0.00 86 1020.2
20260506141545 56 314 0.0 4.0 0.00 0.00 0.00 88 1020.1
20260506140055 56 0 0.0 1.0 0.00 0.00 0.00 88 1020.2
20260506134543 56 0 0.0 0.0 0.00 0.00 0.00 87 1019.8
20260506133052 56 0 0.0 0.0 0.00 0.00 0.00 86 1019.7
20260506131544 56 0 0.0 0.0 0.00 0.00 0.00 86 1019.7
20260506130044 56 0 0.0 0.0 0.00 0.00 0.00 85 1019.5
20260506124543 56 313 0.0 3.0 0.00 0.00 0.00 85 1019.5
20260506123042 56 313 0.0 4.0 0.00 0.00 0.00 85 1019.5
20260506121545 57 313 2.0 4.0 0.00 0.00 0.00 85 1019.5
20260506120050 57 0 0.0 5.0 0.00 0.00 0.00 85 1019.3
20260506114543 57 321 2.0 5.0 0.00 0.00 0.00 84 1019.2
20260506113048 57 0 1.0 7.0 0.00 0.00 0.00 84 1019.1
20260506111543 57 286 1.0 7.0 0.00 0.00 0.00 84 1018.8
20260506110048 57 292 2.0 5.0 0.00 0.00 0.00 84 1018.7
20260506104554 57 315 0.0 4.0 0.00 0.00 0.00 84 1018.5
20260506103044 57 0 1.0 5.0 0.00 0.00 0.00 83 1018.4
20260506101549 58 317 2.0 4.0 0.00 0.00 0.00 82 1018.1
20260506100042 58 0 1.0 3.0 0.00 0.00 0.00 83 1018.1
20260506094540 58 0 0.0 0.0 0.00 0.00 0.00 83 1018.1
20260506093043 58 317 0.0 3.0 0.00 0.00 0.00 83 1017.9
20260506091543 58 0 0.0 2.0 0.00 0.00 0.00 83 1017.9
20260506090042 58 0 0.0 2.0 0.00 0.00 0.00 83 1017.9
20260506084544 58 0 0.0 3.0 0.00 0.00 0.00 83 1017.8
20260506083050 59 0 0.0 3.0 0.00 0.00 0.00 84 1018.0
20260506081544 59 0 1.0 4.0 0.00 0.00 0.00 86 1017.8
20260506073046 59 0 0.0 0.0 0.00 0.00 0.00 87 1017.5
20260506071541 59 0 0.0 0.0 0.00 0.00 0.00 87 1017.4
20260506061543 60 0 0.0 0.0 0.00 0.00 0.00 85 1017.1
20260506044611 60 0 0.0 1.0 0.00 0.00 0.00 82 1016.5
20260506043046 60 0 0.0 1.0 0.00 0.00 0.00 81 1016.5
20260506041545 61 319 0.0 3.0 0.00 0.00 0.00 80 1016.2
20260506040047 61 0 0.0 0.0 0.00 0.00 0.00 81 1016.0
20260506034549 61 0 0.0 0.0 0.00 0.00 0.00 79 1015.9
20260506033041 62 0 0.0 0.0 0.00 0.00 0.00 78 1015.7
20260506031549 62 0 0.0 0.0 0.00 0.00 0.00 78 1015.6
20260506030044 62 0 0.0 0.0 0.00 0.00 0.00 77 1015.6
20260506024547 62 0 0.0 0.0 0.00 0.00 0.00 76 1015.5
20260506023057 62 0 0.0 1.0 0.00 0.00 0.00 75 1015.6
20260506021555 63 0 0.0 0.0 0.00 0.00 0.00 75 1015.4
20260506020043 63 0 0.0 0.0 0.00 0.00 0.00 75 1015.4
20260506014545 63 0 0.0 1.0 0.00 0.00 0.00 74 1015.4
20260506013043 64 0 0.0 1.0 0.00 0.00 0.00 74 1015.3
20260506011542 64 0 0.0 2.0 0.00 0.00 0.00 72 1015.4
20260506010055 64 0 0.0 2.0 0.00 0.00 0.00 72 1015.4
20260506004548 64 0 0.0 3.0 0.00 0.00 0.00 72 1015.5
20260506003042 64 0 0.0 4.0 0.00 0.00 0.00 69 1015.5
20260506001546 64 319 0.0 4.0 0.00 0.00 0.00 73 1015.5
20260506000048 64 0 0.0 5.0 0.00 0.00 0.00 69 1015.6
20260505234605 64 0 1.0 7.0 0.00 0.00 0.00 70 1015.8
20260505233043 64 270 3.0 7.0 0.00 0.00 0.00 71 1015.8
20260505231549 64 284 2.0 7.0 0.00 0.00 0.00 71 1015.9
20260505230047 64 322 2.0 9.0 0.00 0.00 0.00 71 1015.9
20260505224548 64 271 4.0 9.0 0.00 0.00 0.00 71 1016.0
20260505223044 64 286 2.0 8.0 0.00 0.00 0.00 71 1016.2
20260505221550 64 0 2.0 5.0 0.00 0.00 0.00 72 1016.0
20260505220051 64 0 0.0 3.0 0.00 0.00 0.00 73 1016.2
20260505214604 64 338 1.0 4.0 0.00 0.00 0.00 71 1016.3
20260505213058 65 0 0.0 4.0 0.00 0.00 0.00 70 1016.3